Weather History for KAVL - January, 2009

Change the Weather History Date:

Friday, January 16, 2009

  Actual Average Record
Temperature  
Mean Temperature 14 °F 37 °F  
Max Temperature 22 °F 47 °F 73 °F (1974)
Min Temperature 5 °F 26 °F -9 °F (1893)
Degree Days  
Heating Degree Days 51 28  
Month to date heating degree days 416 448  
Since 1 July heating degree days 2141 2109  
Cooling Degree Days 0 0  
Month to date cooling degree days 0 0  
Year to date cooling degree days 0 0  
Moisture  
Dew Point -8 °F    
Average Humidity 42    
Maximum Humidity 66    
Minimum Humidity 18    
Precipitation  
Precipitation 0.00 in 0.12 in 1.57 in (1924)
Month to date precipitation 2.23 1.84  
Year to date precipitation 2.23 1.84  
Snow  
Snow 0.00 in 0.20 in 7.00 in (1891)
Month to date snowfall T 2.1  
Since 1 July snowfall T 3.1  
Snow Depth -    
Sea Level Pressure  
Sea Level Pressure 30.57 in    
Wind  
Wind Speed 13 mph (NNW)    
Max Wind Speed 26 mph    
Max Gust Speed 32 mph    
Visibility 10 miles    
Events      
T = Trace of Precipitation, MM = Missing Value Source: NWS Daily Summary

Daily Weather History Graph

Daily Weather History Graph

Search for Another Location

Airport or City:

Trip Planner

Search our weather history database for the weather conditions in past years. The results will help you decide how hot, cold, wet, or windy it might be!

Date:

Astronomy

Jan. 16, 2009 Rise Set
Actual Time 7:38 AM EST 5:42 PM EST
Civil Twilight 7:10 AM EST 6:09 PM EST
Nautical Twilight 6:39 AM EST 6:40 PM EST
Astronomical Twilight 6:09 AM EST 7:11 PM EST
Moon No Moon Rise 10:50 AM EST (1/16)
Length of Visible Light 10h 58m
Length of Day
10h 03m
Waning Gibbous, 64% of the Moon is Illuminated
Jan 16
Waning Gibbous
Jan 17
Last Quarter
Jan 26
New
Feb 2
First Quarter
Feb 9
Full

Hourly Weather History & Observations

Time (EST) Temp. Windchill Dew Point Humidity Pressure Visibility Wind Dir Wind Speed Gust Speed Precip Events Conditions
12:54 AM 10.0 °F -6.5 °F -2.9 °F 56% 30.53 in 10.0 mi North 15.0 mph 21.9 mph N/A   Clear
1:54 AM 9.0 °F -7.9 °F -4.0 °F 56% 30.54 in 10.0 mi North 15.0 mph 21.9 mph N/A   Clear
2:54 AM 8.1 °F -11.2 °F -4.0 °F 58% 30.54 in 10.0 mi NNW 19.6 mph 26.5 mph N/A   Clear
3:54 AM 7.0 °F -13.1 °F -4.0 °F 61% 30.55 in 10.0 mi NNW 20.7 mph 29.9 mph N/A   Clear
4:54 AM 7.0 °F -11.6 °F -4.0 °F 61% 30.54 in 10.0 mi NNW 17.3 mph 28.8 mph N/A   Clear
5:54 AM 6.1 °F -14.3 °F -5.1 °F 60% 30.56 in 10.0 mi NNW 20.7 mph 27.6 mph N/A   Clear
6:54 AM 6.1 °F -11.6 °F -5.1 °F 60% 30.58 in 10.0 mi NNW 15.0 mph 27.6 mph N/A   Clear
7:54 AM 5.0 °F -9.1 °F -5.1 °F 63% 30.62 in 10.0 mi NNW 9.2 mph - N/A   Clear
8:54 AM 7.0 °F -9.1 °F -5.1 °F 58% 30.63 in 10.0 mi NNW 12.7 mph 19.6 mph N/A   Clear
9:54 AM 10.9 °F -3.4 °F -8.0 °F 42% 30.64 in 10.0 mi NNW 11.5 mph 19.6 mph N/A   Clear
10:54 AM 12.9 °F -2.2 °F -9.9 °F 35% 30.65 in 10.0 mi North 13.8 mph 18.4 mph N/A   Clear
11:54 AM 16.0 °F 2.9 °F -11.0 °F 30% 30.62 in 10.0 mi North 11.5 mph 20.7 mph N/A   Clear
12:54 PM 19.0 °F 6.1 °F -11.9 °F 25% 30.57 in 10.0 mi North 12.7 mph 21.9 mph N/A   Clear
1:54 PM 21.0 °F 7.6 °F -13.0 °F 22% 30.56 in 10.0 mi North 15.0 mph - N/A   Clear
2:54 PM 21.0 °F 7.1 °F -17.0 °F 18% 30.54 in 10.0 mi North 16.1 mph 23.0 mph N/A   Clear
3:54 PM 21.0 °F 6.2 °F -16.1 °F 19% 30.53 in 10.0 mi NNW 18.4 mph 24.2 mph N/A   Clear
4:54 PM 19.0 °F 4.5 °F -13.0 °F 24% 30.54 in 10.0 mi NNW 16.1 mph - N/A   Clear
5:54 PM 17.1 °F 4.3 °F -11.0 °F 28% 30.56 in 10.0 mi NNW 11.5 mph - N/A   Clear
6:54 PM 16.0 °F 5.3 °F -9.0 °F 32% 30.56 in 10.0 mi NNW 8.1 mph - N/A   Clear
7:54 PM 14.0 °F 2.0 °F -8.0 °F 37% 30.58 in 10.0 mi NNW 9.2 mph - N/A   Clear
8:54 PM 14.0 °F 0.5 °F -7.1 °F 39% 30.58 in 10.0 mi NNW 11.5 mph - N/A   Mostly Cloudy
9:54 PM 12.9 °F 1.6 °F -6.0 °F 43% 30.58 in 10.0 mi NNW 8.1 mph - N/A   Clear
10:54 PM 10.9 °F 2.9 °F -6.0 °F 47% 30.57 in 10.0 mi NNW 4.6 mph - N/A   Clear
11:54 PM 10.0 °F 3.6 °F -7.1 °F 46% 30.56 in 10.0 mi NW 3.5 mph - N/A   Clear